Find Starlink 3324

NORAD ID: 50814 Int'l Des: 2022-001 Owner: SPXS Country: US Constellation: starlink operational
LEOCIRCULAR

リアルタイム位置

3D地球を読み込み中...

Starlink 3324について

説明を読み込み中...

次回通過

Passes for default location (London). Set your location on the main map for personalized predictions.

高度履歴

Loading altitude history...

軌道要素

1 50814U 22001M 26121.49974326 .00000278 00000-0 35593-4 0 9995
2 50814 53.2180 292.0474 0001595 104.6579 255.4590 15.08837745238381
Epoch: May 1, 2026 • Age: 6 hours

現在のステータス

高度 558.3 km
速度 7.58 km/s
衛星直下点 -50.56°S, 96.2°E
打ち上げ日 Jan 6, 2022
運用期間 4.3 years
タイプ internet

技術仕様

分類 Payload
質量 297.00 kg
乾燥質量 275.00 kg
総質量 297.00 kg
長さ 0.20 m
直径 2.80 m
スパン 9.00 m
形状 Box + pan
製造者 SPXS
バスタイプ Starlink
フェーズステータス In Orbit
所有者/国 SPXS/US

Most Searched